TimePST,TemperatureF,Dew PointF,Humidity,Sea Level PressureIn,VisibilityMPH,Wind Direction,Wind SpeedMPH,Gust SpeedMPH,PrecipitationIn,Events,Conditions,WindDirDegrees,DateUTC
12:24 AM,42.8,42.8,100,30.57,3.0,North,4.6,-,N/A,,Overcast,10,2013-02-15 08:24:00
12:53 AM,43.0,42.1,97,30.60,3.0,North,4.6,-,N/A,,Overcast,10,2013-02-15 08:53:00
1:03 AM,42.8,42.8,100,30.57,2.5,North,5.8,-,N/A,,Overcast,10,2013-02-15 09:03:00
1:17 AM,42.8,42.8,100,30.56,2.5,NNE,5.8,-,N/A,,Overcast,20,2013-02-15 09:17:00
1:34 AM,42.8,42.8,100,30.56,3.0,North,5.8,-,N/A,,Overcast,10,2013-02-15 09:34:00
1:53 AM,43.0,42.1,97,30.58,4.0,North,5.8,-,N/A,,Overcast,10,2013-02-15 09:53:00
2:53 AM,43.0,41.0,93,30.56,6.0,North,4.6,-,N/A,,Overcast,10,2013-02-15 10:53:00
3:06 AM,42.8,41.0,93,30.53,7.0,North,6.9,-,N/A,,Overcast,10,2013-02-15 11:06:00
3:53 AM,42.1,39.9,92,30.55,7.0,North,5.8,-,N/A,,Overcast,360,2013-02-15 11:53:00
4:40 AM,42.8,39.2,87,30.51,7.0,North,5.8,-,N/A,,Overcast,360,2013-02-15 12:40:00
4:53 AM,42.1,39.9,92,30.53,7.0,North,5.8,-,N/A,,Overcast,10,2013-02-15 12:53:00
5:53 AM,41.0,39.9,96,30.53,8.0,North,3.5,-,N/A,,Overcast,350,2013-02-15 13:53:00
6:21 AM,41.0,39.2,93,30.50,7.0,North,3.5,-,N/A,,Overcast,10,2013-02-15 14:21:00
6:44 AM,41.0,39.2,93,30.49,6.0,North,6.9,-,N/A,,Overcast,10,2013-02-15 14:44:00
6:53 AM,41.0,39.9,96,30.52,6.0,North,6.9,-,N/A,,Overcast,10,2013-02-15 14:53:00
7:24 AM,39.2,39.2,100,30.49,1.8,North,5.8,-,N/A,,Overcast,360,2013-02-15 15:24:00
7:29 AM,39.2,39.2,100,30.49,0.5,North,8.1,-,N/A,Fog,Fog,10,2013-02-15 15:29:00
7:53 AM,39.0,39.0,100,30.52,0.5,North,6.9,-,N/A,Fog,Fog,360,2013-02-15 15:53:00
8:17 AM,39.2,39.2,100,30.48,0.2,NNE,4.6,-,N/A,Fog,Fog,30,2013-02-15 16:17:00
8:53 AM,39.9,39.0,97,30.51,0.2,NNE,4.6,-,N/A,Fog,Fog,20,2013-02-15 16:53:00
9:07 AM,39.2,39.2,100,30.48,0.2,NNE,6.9,-,N/A,Fog,Fog,30,2013-02-15 17:07:00
9:19 AM,39.2,39.2,100,30.48,1.0,North,6.9,-,N/A,,Overcast,10,2013-02-15 17:19:00
9:38 AM,41.0,39.2,93,30.47,2.5,NNE,5.8,-,N/A,,Overcast,20,2013-02-15 17:38:00
9:46 AM,39.2,39.2,100,30.47,5.0,NNE,9.2,-,N/A,,Overcast,30,2013-02-15 17:46:00
9:53 AM,39.9,39.9,100,30.49,2.5,NNE,8.1,-,N/A,,Overcast,30,2013-02-15 17:53:00
10:48 AM,48.2,42.8,82,30.45,6.0,NNE,6.9,-,N/A,,Haze,20,2013-02-15 18:48:00
10:53 AM,48.0,42.1,80,30.47,6.0,North,5.8,-,N/A,,Haze,10,2013-02-15 18:53:00
11:15 AM,51.8,42.8,71,30.43,10.0,North,5.8,-,N/A,,Scattered Clouds,360,2013-02-15 19:15:00
11:53 AM,55.0,42.1,62,30.45,4.0,Variable,6.9,-,N/A,,Haze,0,2013-02-15 19:53:00
12:53 PM,57.0,42.1,57,30.41,10.0,NNW,8.1,-,N/A,,Clear,340,2013-02-15 20:53:00
1:53 PM,57.9,42.1,56,30.37,10.0,Variable,6.9,-,N/A,,Clear,0,2013-02-15 21:53:00
2:53 PM,57.9,41.0,53,30.35,10.0,NNE,4.6,-,N/A,,Clear,30,2013-02-15 22:53:00
3:53 PM,57.9,39.9,51,30.33,10.0,NNW,4.6,-,N/A,,Clear,340,2013-02-15 23:53:00
4:53 PM,54.0,43.0,66,30.31,10.0,WNW,5.8,-,N/A,,Clear,290,2013-02-16 00:53:00
5:53 PM,50.0,41.0,71,30.28,10.0,Calm,Calm,-,N/A,,Clear,0,2013-02-16 01:53:00
6:53 PM,46.9,39.9,77,30.28,10.0,West,3.5,-,N/A,,Clear,270,2013-02-16 02:53:00
7:53 PM,46.0,39.9,79,30.25,10.0,Calm,Calm,-,N/A,,Clear,0,2013-02-16 03:53:00
8:53 PM,45.0,39.0,80,30.24,10.0,Calm,Calm,-,N/A,,Clear,0,2013-02-16 04:53:00
9:53 PM,44.1,39.0,82,30.23,10.0,Calm,Calm,-,N/A,,Clear,0,2013-02-16 05:53:00
10:53 PM,45.0,39.9,82,30.20,9.0,Calm,Calm,-,N/A,,Mostly Cloudy,0,2013-02-16 06:53:00
11:53 PM,45.0,39.0,80,30.19,8.0,Calm,Calm,-,N/A,,Overcast,0,2013-02-16 07:53:00